P/2004 T1 (LINEAR-NEAT)

Epoch 2004 Nov. 11.0 TT = JDT 2453320.5  

T 2004 Nov. 7.76974 TT                                  Nakano

q   1.7095710            (2000.0)            P               Q

n   0.15233624     Peri.  336.52360     +0.87731737     -0.45594717

a   3.4721666      Node    51.46003     +0.46505228     +0.73065773

e   0.5076357      Incl.   11.03796     +0.11849305     +0.50818447

P   6.47 (+/- 0.01 day)

From 451 observations 2004 July 16-2005 Mar. 7, mean residual 0".65.

Residuals in seconds of arc 

2004/                     041011 A10  0.2-  0.8+    041111 699 (3.2+  1.0+) 

040716 704  0.6-  0.4+    041012 360  0.2-  0.8-    041112 704  1.0+  0.2-  

040716 704  0.6-  0.1-    041012 360  0.1-  0.9-    041112 704  0.6-  0.5+  

040716 704 (2.9-  2.1+)   041012 A33  0.2+  0.2-    041112 704  0.5+  1.4+  

040716 704  0.6-  0.7-    041012 A33  0.2+  0.0     041112 704  0.2+  0.6+  

040921 704 (3.2+  0.5+)   041013 352  0.2+  0.4+    041112 704  0.3-  1.6+  

040921 704  0.3+  1.2+    041013 352  0.0   0.2-    041112 372  0.7-  0.9+  

040921 704  0.4-  0.6+    041013 352  0.1+  0.0     041112 235 (3.1-  1.3-) 

040921 704  0.5-  0.6+    041013 372  1.5-  0.4-    041113 939  0.7+  0.4-  

040921 704 (2.4-  1.8+)   041013 372  0.8-  0.3+    041113 939  0.6+  0.3+  

041005 704  1.1-  1.4+    041013 372  0.7-  0.8+    041113 A01  1.1+  0.7-  

041005 704  0.6+  0.9-    041014 834  0.5-  0.3+    041113 939  0.7+  0.7+  

041005 704  1.1-  0.2+    041014 834  0.4+  0.5-    041113 A01  0.7+  1.4-  

041005 608 (2.7-  2.1+)   041014 D70  0.5-  0.6+    041113 J93  0.3-  0.5-  

041005 608 (2.4-  2.0+)   041014 D70  0.0   0.4+    041113 J93  0.7-  0.3+  

041005 608 (2.6-  1.9+)   041014 D70  0.3+  1.0+    041113 J93 (2.0+  1.7+) 

041005 246  0.2-  0.3-    041015 I77  0.1+  0.0     041115 213  0.2-  0.0   

041005 246  0.3-  0.1-    041015 I77  0.4+  0.1+    041115 213  0.3+  0.5+  

041005 246  0.5-  0.2-    041015 I77  0.3+  0.5-    041115 213  1.2+  0.7+  

041005 246  0.4-  0.1-    041015 349  0.3+  0.2+    041115 213 (2.0+  0.7-) 

041005 J95  0.2+  0.3+    041015 349  0.1+  0.3+    041116 D88  1.2+  0.4+  

041005 246  0.3-  0.2-    041015 349  0.1+  0.1+    041116 D88  0.5+  0.2-  

041005 J95  0.1+  0.4+    041015 349  0.3+  0.3+    041116 D88  1.3+  0.4+  

041005 J95  0.3+  0.5+    041015 J78  0.9+  0.3+    041116 372  0.4+  0.9+  

041005 104  0.2-  0.4-    041015 J78  0.8+  0.9+    041116 349  0.1-  0.6-  

041005 104  0.0   0.2-    041015 J78  0.6+  1.0+    041116 349  0.1+  0.7-  

041005 104  0.4-  0.0     041015 A10  0.2+  0.6-    041116 349  0.0   0.6-  

041005 104  0.1+  0.3-    041015 A10  1.5+  0.2+    041118 704  1.4+  0.2-  

041005 557  0.1+  0.0     041016 360  0.2-  0.3-    041118 704 (4.3+  1.3+) 

041005 557  0.2-  0.3+    041016 360  0.2-  0.5-    041118 704  0.5+  0.5+  

041005 113  0.3-  0.5+    041016 379  0.5+  0.5-    041118 704 (2.2+  1.3+) 

041005 557  0.0   0.0     041016 379  0.7-  1.2+    041118 704  1.6+  1.4+  

041005 113  0.2-  0.6+    041016 372  1.5+  0.1-    041119 213  0.4+  0.4+  

041005 113  0.0   0.2+    041016 372  0.1+  0.1+    041119 213  1.1+  1.0+  

041005 113  0.3-  0.6+    041016 355  0.3+  0.6+    041119 213  0.4+  0.3+  

041005 113  0.1-  0.5+    041016 355  0.2-  0.6+    041120 J97  1.1+  1.6+  

041006 J95  0.1-  0.0     041016 355  0.3-  0.5+    041120 A02  0.5-  0.4+  

041006 I77  0.0   0.6-    041016 355  0.2+  0.3+    041120 A02  0.0   0.5-  

041006 I77  0.3+  0.7-    041016 349  0.5+  0.1-    041120 A02  0.0   0.6-  

041006 850  1.7+  1.6-    041016 349  0.5+  0.0     041124 A41  0.2-  1.1-  

041006 850  0.2-  0.1+    041016 349  0.3+  0.1+    041124 A41  1.2-  0.0   

041006 850  0.0   0.1+    041016 A33  0.3+  0.5+    041124 A41 (0.9+  6.2+) 

041006 850  0.0   0.1-    041016 A33  0.3+  0.3+    041127 608  0.1+  0.2-  

041006 854  0.2-  0.3+    041016 939  0.0   0.5+    041127 608  0.2-  0.5-  

041006 854  0.6-  0.3+    041016 939  0.2-  0.9+    041127 608  0.5+  0.4-  

041006 854  0.1+  0.2+    041016 939  0.0   0.9+    041128 900 (0.1+  4.2-) 

041006 854  0.1-  0.2+    041017 A02  0.1+  0.0     041128 900  1.1+  1.6+  

041006 704 (3.0+  1.2-)   041017 A02  0.1+  0.1-    041130 699 (8.9+  2.7+) 

041006 704 (3.1+  1.1-)   041017 A02  0.2+  0.0     041130 673 (2.4-  0.0 ) 

041006 704 (3.7+  1.5-)   041017 834  0.2+  0.8+    041130 673 (2.0-  0.1-) 

041006 704  0.2-  0.6-    041017 834  0.3-  0.1-    041130 673  1.9-  0.4-  

041006 704  1.1-  0.6-    041017 834  0.4-  0.3-    041130 673 (2.2-  0.3-) 

041006 704  0.2-  0.8-    041017 D83  0.2+  1.2-    041130 699 (6.4+  1.3+) 

041006 704  0.8-  0.7+    041017 D83  0.6+  0.6-    041130 699 (8.2+  1.6+) 

041006 704  0.4-  0.3+    041017 D83  0.1+  0.5-    041130 699 (7.1+  1.2+) 

041006 G90  0.0   0.1+    041017 D83  0.1-  0.3-    041130 561  0.1-  1.3+  

041006 704  0.5-  0.1+    041017 349  0.3-  0.2+    041130 561  1.5+  1.0+  

041006 704  1.4-  1.1-    041017 349  0.3-  0.0     041130 561  0.7-  0.0   

041006 G90  0.1+  0.0     041017 349  0.1-  0.0     041201 360  1.2-  0.4-  

041006 G90  0.2+  0.1-    041017 349  0.3-  0.1+    041201 360  1.6-  0.4-  

041006 704  0.3-  0.1-    041017 379  0.2+  0.3-    041203 349  0.1+  0.1+  

041006 704 (2.2-  2.7+)   041017 379  0.7+  0.7+    041203 349  0.0   0.1-  

041006 704  1.0+  0.5+    041017 130  0.1-  0.2+    041203 349  0.2-  0.3-  

041006 704 (2.3-  3.3+)   041017 130  0.4+  0.0     041205 246  0.7-  0.2+  

041006 704 (2.7-  3.0+)   041017 130  0.3+  0.2+    041205 246  0.9-  0.1-  

041006 E14  0.4+  0.5-    041017 130  0.2+  0.2-    041206 D83  0.6-  0.1-  

041006 E14  0.2-  0.8-    041017 130  0.8+  0.1+    041206 D83  0.0   0.1-  

041006 E14  0.3+  0.5-    041018 118  0.1-  0.6-    041206 D83  0.4+  0.7-  

041006 349  0.3-  0.4-    041018 118  0.5+  0.3-    041206 D83  0.8-  0.6-  

041006 349  0.2-  0.1-    041018 118  0.0   0.9-    041206 D88  0.4+  1.1-  

041006 349  0.2+  0.1-    041018 118  0.1+  0.6-    041206 D88  0.5-  1.3-  

041006 104  0.1-  0.0     041020 834  0.4-  0.4+    041206 D88  0.8+  0.3-  

041006 104  0.1-  0.0     041020 834  0.0   0.0     041206 352  1.0+  0.3-  

041006 104  0.0   0.0     041020 834  0.5-  0.3+    041206 352  0.6+  0.0   

041006 938  0.1-  0.4+    041020 H41  0.5+  0.2-    041206 352  0.9+  0.2-  

041006 938  0.1+  0.0     041020 H41  0.6+  0.0     041207 A32  1.7-  0.3+  

041006 938  0.2+  0.1-    041020 H41  0.0   0.1+    041207 A32  0.3-  0.4+  

041006 A11  0.7-  1.6-    041020 213  0.6+  0.2+    041207 A32  0.1+  0.3+  

041006 938  0.0   0.2+    041020 213  0.5+  0.3-    041208 A18 (6.4+  3.3-) 

041006 938  0.0   0.5-    041020 213  0.2-  0.3+    041210 442 (3.3-  0.6-) 

041006 938  0.0   0.0     041021 379  1.4+  0.1-    041210 J97  0.8+  0.4+  

041006 938  0.2+  0.1-    041021 379  0.5+  0.1+    041210 939 (2.4+  0.4+) 

041006 938  0.2+  0.2-    041021 372  1.5-  1.1+    041210 939  0.8+  0.4+  

041006 938  0.4+  0.2-    041021 372  0.1+  0.0     041210 939  0.4-  0.4+  

041006 A11  1.3-  0.2+    041022 608 (0.6+  3.0+)   041211 561  0.3-  0.3-  

041006 A11 (2.1-  0.3+)   041022 608  0.9+  1.9+    041211 561  0.8-  0.2-  

041006 A11 (4.0-  0.8+)   041022 608 (0.3+  2.3+)   041211 561  0.1-  0.3-  

041007 834  0.0   0.2+    041022 A06  0.3+  0.6-    041212 106  0.3-  0.9-  

041007 834  0.1-  0.6+    041022 A06  0.2+  1.1-    041212 106  1.2+  0.1-  

041007 834  0.6-  0.3+    041022 213 (2.6+  0.4+)   041212 106  1.0+  0.0   

041007 850  0.4+  0.2-    041022 213  1.3+  0.0     041213 608  0.6-  0.6+  

041007 704 (3.2+  1.5-)   041022 213  1.2+  0.0     041213 608  1.6+  1.3+  

041007 704 (2.8+  1.5-)   041023 939  0.4+  0.2-    041213 608  1.9+  1.0+  

041007 850  0.2+  0.6-    041023 939  0.2+  0.2+    041213 372  0.9-  1.0+  

041007 673  0.0   0.4-    041023 939  0.4+  0.5+    041213 372  0.3-  0.8+  

041007 704  0.4-  0.0     041023 213  0.6+  0.0     041213 213  0.2-  0.3-  

041007 704 (0.1+  3.4+)   041023 213  0.3+  0.1-    041213 213  0.4-  0.4-  

041007 673  1.3-  0.5-    041023 213  0.5+  0.4-    041213 213  0.4-  0.4-  

041007 704  0.4-  0.2-    041024 I77  0.3-  0.8-    041214 215  0.8-  1.2-  

041007 704  0.4-  0.2+    041024 I77  0.4-  1.0-    041214 215  0.5-  0.9-  

041007 704  0.9+  0.5+    041024 I77  0.6-  0.9-    041214 215  1.5-  0.9-  

041007 673  0.6+  0.0     041024 I77  0.2+  0.5-    041215 H42  0.9-  0.4-  

041007 673  0.7+  0.0     041028 349  0.1-  0.2-    041215 H42 (1.4-  2.1+) 

041007 704 (3.0-  2.9+)   041028 349  0.1+  0.1+    041215 H42  1.4-  0.6-  

041007 850  0.0   0.6-    041028 349  0.2-  0.2+    041215 H42  0.8-  0.2-  

041007 850  0.6+  0.5-    041029 213  0.5-  0.4+    041215 372  0.4+  1.7-  

041007 415  1.7+  0.4-    041029 213  0.5+  0.3+    041225 349  0.1-  0.0   

041007 415  0.3-  0.2-    041029 213  0.5-  0.6+    041225 349  0.1-  0.0   

041007 415  0.5+  1.1-    041031 939  0.2-  0.9+    041225 349  0.2-  0.1+  

041007 415  1.0-  0.7+    041031 939  0.4-  0.7+    2005/                   

041007 379  1.4+  0.7-    041031 939  0.3-  0.7+    050103 049  1.1-  0.4-  

041007 379  1.8+  1.5-    041102 445  1.7+  1.0-    050103 049  0.7-  0.3+  

041007 379 (2.0+  1.1-)   041102 445  0.4+  1.1-    050103 049  1.3-  0.8-  

041007 379  0.4+  1.1-    041102 445  0.5-  1.0-    050106 704  0.2+  1.0+  

041007 379  0.4+  0.1+    041103 355  0.2+  0.1+    050106 704  1.1+  0.9+  

041007 349  0.1+  0.1-    041103 355  0.5+  0.0     050106 704 (2.5+  2.1+) 

041007 349  0.1-  0.2-    041103 355  0.2+  0.2+    050106 704 (2.0+  0.9+) 

041007 349  0.2-  0.0     041104 372  1.5-  0.4-    050106 704 (3.4+  0.4+) 

041007 349  0.0   0.1-    041104 235  0.7-  1.4+    050106 442  0.3+  0.0   

041008 415  0.1-  1.0-    041104 104  0.8-  0.3-    050108 349  0.5-  0.4+  

041008 415  0.6+  0.2-    041104 104  0.0   0.2-    050108 349  0.1-  0.1+  

